RH
83 82 80 67 49 38 34 33 33 25 20 24 23 22 22 24 26 28 30 31 35 41 46 47 48 52 55 70 98 99 96 98 99 98 99 88 58 63 63 61 58 61 67
81 80 78 67 51 41 35 35 29 20 22 23 23 23 23 22 22 23 23 25 28 32 34 37 40 44 49 66 80 81 97 98 98 98 100 74 78 70 72 68 59 60 63
84 81 77 66 54 43 36 35 23 21 24 23 24 22 19 19 20 20 21 22 24 25 28 30 32 35 38 46 51 54 63 70 77 98 93 80 64 60 51 55 55 53 52
85 81 76 64 54 42 39 29 22 24 24 25 22 19 18 19 19 19 20 21 22 24 27 29 31 33 36 41 44 47 52 56 64 66 56 44 29 24 24 21 9 10 12
85 82 73 64 51 43 34 25 24 26 25 24 20 20 20 19 20 22 21 20 20 21 22 26 30 34 39 41 46 49 47 44 43 37 19 15 27 28 17 24 13 8 6
86 80 70 58 48 40 30 25 26 26 25 22 20 22 20 21 23 20 18 16 16 16 18 20 24 26 27 25 19 12 9 9 9 9 12 14 19 17 12 11 11 10 11
86 75 64 55 45 35 28 26 27 27 25 22 24 20 21 23 21 19 17 14 12 12 15 16 15 13 9 8 8 8 8 9 9 10 11 12 12 13 11 10 12 13 12
81 69 59 50 41 32 28 28 29 28 24 24 23 20 23 22 20 18 14 11 8 8 9 10 10 8 8 8 9 10 10 10 10 10 9 9 10 10 11 11 13 13 12
68 61 53 45 36 29 28 30 30 28 25 26 21 21 22 22 20 16 12 8 7 8 8 9 9 9 10 10 9 8 9 9 10 10 11 11 12 14 16 15 15 17 17
59 54 47 40 33 29 29 31 32 28 26 26 20 22 21 21 20 15 10 8 8 8 9 10 11 11 10 10 10 9 10 11 12 11 12 11 13 13 15 18 21 22 24
59 54 47 39 33 30 31 34 33 29 29 25 21 21 21 22 18 12 9 8 9 10 11 11 12 12 12 11 11 12 12 12 12 13 12 12 14 15 16 17 20 28 34
60 56 48 41 35 34 36 37 34 30 28 25 22 21 20 19 14 10 10 10 10 11 12 13 13 13 13 13 13 14 15 15 15 14 14 14 16 15 15 17 21 27 35
61 58 51 45 41 39 39 38 35 33 29 24 22 21 20 17 12 10 10 11 13 12 13 13 14 14 15 15 15 15 16 18 20 20 21 21 20 19 19 20 22 25 31
62 61 56 52 48 47 46 43 37 33 28 24 22 21 20 14 13 13 34 41 14 12 14 14 14 15 15 15 16 17 20 22 24 24 26 27 27 28 29 31 35 40 41
65 64 61 57 53 50 48 43 39 33 28 25 23 21 18 15 27 68 62 23 13 14 16 15 15 16 16 17 18 19 22 25 27 30 35 37 34 36 37 46 57 69 84
67 68 65 60 56 53 51 46 40 34 29 26 23 20 19 50 77 68 40 14 15 17 18 15 16 16 17 18 19 21 26 30 32 38 40 41 40 44 43 56 72 87 88
70 70 67 61 57 55 53 45 38 37 33 27 24 28 70 78 75 54 19 17 19 22 20 18 17 18 19 20 20 23 26 32 41 41 47 59 70 74 98 82 93 95 89
73 72 67 63 62 60 55 46 39 35 31 28 32 70 77 69 40 28 24 23 22 23 20 19 20 21 20 20 22 26 31 40 48 53 77 96 99 94 92 91 89 91 92
71 71 68 67 66 62 54 45 39 36 35 53 86 80 80 52 44 24 23 24 21 21 21 22 21 20 21 21 24 29 38 48 66 87 95 95 89 90 90 90 90 91 98
72 70 67 65 61 58 54 49 49 52 76 87 83 92 78 54 39 23 22 23 23 22 22 21 21 23 22 23 28 34 43 60 81 88 90 89 88 92 94 91 89 89 88
75 82 88 92 92 93 94 94 93 93 95 97 96 90 75 43 26 24 23 23 24 23 22 25 25 23 24 27 31 40 50 64 84 91 93 93 98 100 93 93 98 99 93
96 97 96 97 97 97 98 98 98 97 95 91 87 76 52 32 25 23 25 25 24 24 27 28 25 26 30 31 36 51 63 72 79 88 99 100 100 100 100 99 95 95 98
96 97 97 97 97 97 97 96 96 94 90 78 58 43 34 26 28 28 28 28 27 29 32 31 29 34 36 36 49 63 72 70 77 93 100 100 100 100 100 97 95 96 95
58 64 74 86 93 94 90 81 70 64 53 38 30 31 31 31 33 34 34 34 32 34 35 32 33 37 38 48 62 69 71 74 86 95 99 100 100 100 99 97 96 95 96
59 61 63 62 56 51 47 44 41 37 34 32 33 37 41 42 40 36 36 36 36 37 37 36 41 47 47 60 68 69 75 85 90 90 100 100 100 99 98 98 95 96 96
50 49 48 48 51 52 53 53 52 50 50 47 45 40 36 34 32 32 33 36 39 42 43 45 53 48 54 64 69 81 87 87 88 90 99 100 98 97 98 98 96 94 95
Wind_Speed
36 35 32 29 26 25 21 19 17 17 16 15 14 12 11 9 8 7 7 6 6 5 5 5 5 6 5 5 3 5 4 6 12 14 15 16 14 13 12 14 16 17 15
37 34 33 29 27 26 21 20 19 18 17 16 14 13 11 9 9 8 7 6 6 6 5 5 5 4 3 4 5 4 4 6 9 12 13 15 15 14 16 17 13 13 15
38 37 34 32 29 25 22 22 20 19 18 16 15 13 11 10 9 8 7 6 6 5 5 5 5 4 4 4 5 5 5 6 7 9 12 12 13 13 14 15 16 15 13
40 37 36 33 28 25 24 23 22 21 18 16 15 13 12 11 10 9 8 7 6 5 5 4 3 3 2 2 3 3 3 4 5 9 10 12 15 16 19 21 21 22 23
39 38 36 31 28 27 26 25 23 20 18 17 16 15 14 13 11 9 8 7 7 6 5 4 3 2 1 1 1 2 3 5 7 11 14 16 16 19 22 23 26 27 26
38 37 34 32 31 30 28 25 22 21 20 19 18 17 16 13 11 10 9 9 8 7 6 6 5 3 3 2 2 3 4 5 7 10 12 15 16 19 21 23 24 27 31
35 35 34 34 31 30 27 24 23 23 22 21 20 19 16 14 13 11 10 10 9 8 8 6 5 4 2 2 2 3 5 6 8 9 12 14 17 19 22 24 24 25 26
34 34 35 33 31 28 26 25 25 24 23 22 21 20 17 14 13 12 11 10 9 9 8 7 6 4 3 2 2 3 4 6 7 9 11 13 15 18 20 22 24 26 27
33 33 33 31 29 28 28 27 25 24 24 24 22 20 17 16 14 12 12 11 10 9 9 7 7 5 4 2 3 5 5 7 9 12 13 14 14 16 20 23 24 27 29
34 34 31 29 29 29 28 26 25 26 25 25 23 20 19 17 15 15 14 13 12 11 11 9 8 6 4 4 5 6 8 10 12 14 16 18 19 21 21 22 24 25 26
30 31 31 29 30 28 27 27 28 28 27 25 23 21 20 18 17 16 15 14 13 12 11 11 9 7 6 6 7 8 10 13 14 17 19 20 21 22 23 25 26 27 28
27 30 30 30 30 29 28 29 30 29 28 26 25 23 22 20 18 16 15 14 14 14 13 12 11 9 8 9 9 10 12 15 18 20 22 22 23 23 23 24 26 28 28
27 29 31 30 30 30 31 32 31 30 29 28 27 25 23 21 19 17 16 15 16 15 15 14 13 12 12 11 12 13 15 17 20 22 23 24 24 26 27 28 28 29 29
27 28 30 32 31 31 32 31 31 31 31 31 29 27 24 23 21 18 15 15 19 19 17 16 16 15 14 14 14 15 17 19 21 23 25 26 28 30 31 30 29 29 30
26 27 30 31 32 32 32 31 31 30 30 29 28 26 26 24 19 14 15 20 21 19 18 18 18 17 17 16 17 19 20 21 23 24 26 29 31 32 31 28 26 28 29
24 27 29 31 33 32 31 30 28 27 27 26 23 23 23 19 15 15 21 20 19 19 19 20 19 19 19 19 20 22 23 24 25 26 28 29 30 31 31 28 26 28 29
23 25 28 29 31 31 31 31 31 29 25 25 25 23 19 16 18 23 19 20 21 20 22 22 21 20 20 21 23 24 25 25 26 28 28 27 27 28 26 29 31 32 33
20 23 24 26 28 29 30 30 29 28 28 25 23 20 17 18 22 19 21 22 22 23 23 22 21 21 21 23 24 25 26 27 27 27 25 24 23 26 29 30 33 32 32
17 20 20 22 24 25 26 25 24 24 23 22 19 19 20 21 22 22 21 23 23 23 22 22 21 22 23 25 26 27 28 27 25 23 23 25 26 27 30 33 35 30 29
14 16 17 19 20 19 19 20 21 22 22 23 28 26 19 21 21 23 23 23 24 24 22 21 21 23 25 26 27 27 26 25 22 22 25 26 28 28 33 33 29 30 30
9 12 13 16 18 19 20 22 24 27 31 32 21 17 19 22 22 22 22 23 24 23 22 22 24 25 25 26 26 25 23 22 21 22 25 28 32 33 28 28 29 30 36
9 11 13 15 18 21 24 24 22 19 13 13 15 17 19 22 23 25 24 24 24 23 23 24 25 24 24 25 22 20 19 20 22 24 27 27 28 28 29 32 31 29 28
5 8 10 10 12 13 14 15 14 12 12 14 17 20 22 24 24 25 26 24 24 24 23 23 25 25 24 21 18 17 19 22 23 25 27 28 29 30 30 29 30 32 32
7 6 6 6 7 9 10 11 13 16 22 23 22 23 24 25 26 26 26 25 24 24 24 24 24 24 22 19 18 18 20 23 23 25 27 28 29 29 28 30 31 31 30
15 16 17 18 19 21 23 24 25 25 25 25 26 26 26 26 26 25 24 24 24 25 25 24 24 24 22 18 19 21 22 22 23 25 25 26 28 27 28 29 29 27 28
19 20 20 20 21 21 22 23 23 23 24 22 23 23 22 22 23 23 24 24 25 25 25 24 24 24 19 18 19 20 21 22 24 23 23 23 23 24 24 25 26 27 29
Wind_Direction
218 221 221 221 224 227 231 229 230 234 235 237 238 237 237 235 233 230 231 234 231 233 242 239 243 255 260 253 243 277 291 284 294 307 315 324 348 337 332 330 332 336 339
219 221 222 221 222 227 227 227 226 229 230 231 230 228 226 226 224 223 222 222 225 228 236 237 241 252 246 242 259 277 277 299 299 307 320 347 341 334 330 327 332 332 329
219 220 220 221 220 222 224 223 224 226 226 224 221 221 219 217 215 214 213 213 217 225 230 236 247 247 246 257 262 266 279 301 319 318 315 317 323 322 326 325 330 330 342
218 218 219 219 220 220 220 222 221 222 221 217 217 217 212 211 208 207 210 216 222 223 227 238 246 249 252 258 269 284 305 316 316 318 321 322 335 344 348 343 340 343 341
216 217 218 219 216 216 219 219 217 217 216 214 213 210 208 207 208 209 214 220 225 223 230 226 227 231 235 254 287 322 332 337 332 331 343 348 352 344 345 342 338 339 341
218 218 217 213 211 214 217 216 215 212 212 211 209 208 207 209 213 217 217 218 222 227 225 224 225 231 244 273 313 330 347 349 347 342 344 343 341 337 337 340 340 340 339
218 215 212 211 213 216 215 214 213 212 210 208 208 209 212 212 215 218 221 223 223 224 224 228 228 224 247 287 328 332 346 351 352 348 345 342 338 337 335 336 338 336 332
218 214 213 213 215 214 213 213 211 210 210 210 210 212 215 215 217 219 222 224 223 220 220 221 228 232 226 249 301 331 345 343 347 344 341 339 337 338 335 336 335 331 330
216 214 215 216 214 214 215 213 212 211 210 211 213 215 217 217 218 220 223 224 223 219 219 219 222 225 233 270 311 328 340 338 341 339 339 339 338 337 332 329 330 327 328
218 219 219 218 218 219 217 214 214 214 214 216 215 215 216 217 220 222 224 223 223 222 220 219 222 230 248 279 304 319 328 329 331 331 333 333 333 331 329 325 323 321 322
223 222 221 220 222 221 218 215 215 213 213 215 215 216 219 220 222 223 225 227 228 228 226 224 226 234 255 280 297 310 318 321 323 322 322 323 323 322 320 318 317 315 314
229 226 224 223 221 219 217 215 215 216 216 215 214 216 217 220 221 223 225 228 231 232 229 230 237 245 258 275 289 301 309 312 313 314 316 319 320 319 316 313 309 306 305
233 229 226 224 220 219 216 216 214 214 215 215 217 218 219 219 220 221 225 231 240 239 237 240 245 254 266 278 288 298 305 309 310 313 316 317 317 317 314 310 303 300 298
233 228 225 223 219 217 217 219 219 218 217 218 218 218 217 216 216 217 227 244 248 243 241 246 253 259 267 278 286 294 299 305 308 311 313 314 316 316 312 308 304 304 301
233 233 228 225 222 219 221 223 223 226 229 227 225 223 218 215 211 232 242 247 245 246 247 249 254 262 272 280 288 295 300 303 307 309 311 312 312 311 310 310 308 306 303
235 232 229 226 223 222 222 221 222 227 227 224 224 223 214 216 229 247 248 245 245 247 249 253 259 268 277 286 292 297 299 302 305 305 305 307 307 309 310 311 313 313 307
241 236 230 227 225 223 220 222 220 218 217 219 216 214 220 243 257 246 242 247 248 249 252 259 266 273 282 288 293 295 297 300 299 301 304 303 305 306 310 311 313 314 312
235 238 236 231 228 227 226 224 222 222 218 213 216 226 241 255 243 241 246 246 246 247 255 263 272 278 285 289 293 294 295 297 299 301 299 300 301 305 306 307 309 308 306
228 232 234 232 231 229 228 223 221 217 216 218 223 235 248 240 242 248 246 247 252 257 261 266 272 279 285 291 292 292 293 294 296 295 294 296 299 300 300 304 304 300 299
226 231 231 228 225 221 218 216 218 216 220 232 244 252 233 238 248 253 252 254 258 262 264 269 276 283 286 286 287 288 289 289 291 291 290 293 297 296 295 299 296 296 298
225 220 217 217 220 224 228 228 232 238 243 250 236 225 231 251 255 256 256 255 258 262 266 273 278 281 283 286 287 285 287 288 288 290 292 290 287 290 294 297 295 292 291
261 256 251 244 246 245 246 241 228 222 218 234 235 235 248 258 258 259 258 257 258 261 266 273 279 283 285 285 282 281 281 284 290 292 291 291 292 294 290 288 292 293 290
286 263 249 239 228 220 219 229 230 225 231 244 252 256 256 260 260 264 263 260 259 260 268 278 281 280 284 281 275 273 281 292 296 294 292 290 292 295 296 298 297 295 295
303 298 290 281 275 264 254 256 260 259 260 262 262 263 263 262 262 264 263 262 260 265 272 276 277 282 287 278 273 280 286 291 291 289 289 289 294 297 297 298 299 300 301
288 283 280 277 271 265 265 263 262 263 262 264 265 265 267 267 266 264 262 262 263 267 273 278 280 284 281 271 275 282 291 295 293 295 292 291 292 295 298 299 302 304 304
287 285 284 282 279 277 276 275 274 275 273 273 271 270 268 267 267 266 265 264 266 270 272 274 276 281 272 268 277 286 292 294 298 295 290 288 292 297 301 303 304 305 306